Cahokia, IL

10:54 AM CDT on July 23, 2017 (GMT -0500)
Saint Louis Downtown

Weather History for KCPS - May, 2013

Change the Weather History Date:

Monday, May 13, 2013

  Actual Average Record
Temperature  
Mean Temperature 54 °F -  
Max Temperature 72 °F 63 °F 91 °F (1962)
Min Temperature 37 °F 53 °F 37 °F (2006)
Degree Days  
Heating Degree Days 11    
Growing Degree Days 4 (Base 50)    
Moisture  
Dew Point 38 °F    
Average Humidity 57    
Maximum Humidity 93    
Minimum Humidity 27    
Precipitation  
Precipitation 0.00 in - - ()
Sea Level Pressure  
Sea Level Pressure 30.16 in    
Wind  
Wind Speed 2 mph (SSE)    
Max Wind Speed 10 mph    
Max Gust Speed -    
Visibility 10 miles    
Events      
Averages and records for this station are not official NWS values.
T = Trace of Precipitation, MM = Missing Value Source: NWS Daily Summary

Daily Weather History Graph

Daily Weather History Graph

Search for Another Location

Airport or City:

Trip Planner

Search our weather history database for the weather conditions in past years. The results will help you decide how hot, cold, wet, or windy it might be!

Date:

Astronomy

May. 13, 2013 Rise Set
Actual Time 5:50 AM CDT 8:04 PM CDT
Civil Twilight 5:20 AM CDT 8:33 PM CDT
Nautical Twilight 4:44 AM CDT 9:10 PM CDT
Astronomical Twilight 4:04 AM CDT 9:50 PM CDT
Moon 8:36 AM CDT (5/13) 11:13 PM CDT (5/13)
Length of Visible Light 15h 12m
Length of Day
14h 13m
Waxing Crescent, 12% of the Moon is Illuminated
May 13
Waxing Crescent
May 17
First Quarter
May 24
Full
May 31
Last Quarter
Jun 8
New

Hourly Weather History & Observations

Time (CDT) Temp. Dew Point Humidity Pressure Visibility Wind Dir Wind Speed Gust Speed Precip Events Conditions
12:53 AM 42.1 °F 37.0 °F 82% 30.19 in 10.0 mi Calm Calm - N/A   Clear
1:53 AM 41.0 °F 37.9 °F 89% 30.19 in 10.0 mi Calm Calm - N/A   Clear
2:53 AM 39.9 °F 37.0 °F 89% 30.19 in 10.0 mi Calm Calm - N/A   Clear
3:53 AM 39.0 °F 37.0 °F 93% 30.19 in 10.0 mi Calm Calm - N/A   Clear
4:53 AM 39.0 °F 37.0 °F 93% 30.19 in 10.0 mi Calm Calm - N/A   Clear
5:53 AM 37.9 °F 36.0 °F 93% 30.20 in 10.0 mi Calm Calm - N/A   Clear
6:53 AM 43.0 °F 39.0 °F 86% 30.22 in 10.0 mi Calm Calm - N/A   Clear
7:53 AM 48.9 °F 39.0 °F 69% 30.23 in 10.0 mi Calm Calm - N/A   Clear
8:53 AM 55.0 °F 39.9 °F 57% 30.25 in 10.0 mi SW 4.6 mph - N/A   Clear
9:53 AM 60.1 °F 37.0 °F 42% 30.24 in 10.0 mi SSW 6.9 mph - N/A   Clear
10:53 AM 63.0 °F 35.1 °F 35% 30.24 in 10.0 mi Variable 3.5 mph - N/A   Clear
11:53 AM 64.9 °F 30.0 °F 27% 30.23 in 10.0 mi Calm Calm - N/A   Clear
12:53 PM 66.9 °F 34.0 °F 30% 30.21 in 10.0 mi SSE 6.9 mph - N/A   Clear
1:53 PM 69.1 °F 35.1 °F 29% 30.18 in 10.0 mi SE 6.9 mph - N/A   Clear
3:53 PM 71.1 °F 36.0 °F 28% 30.13 in 10.0 mi Variable 4.6 mph - N/A   Clear
4:53 PM 71.1 °F 39.0 °F 31% 30.10 in 10.0 mi South 4.6 mph - N/A   Clear
5:53 PM 71.1 °F 41.0 °F 34% 30.09 in 10.0 mi SSE 10.4 mph - N/A   Clear
7:53 PM 64.9 °F 41.0 °F 42% 30.07 in 10.0 mi SE 6.9 mph - N/A   Clear
8:53 PM 63.0 °F 43.0 °F 48% 30.06 in 10.0 mi SSE 6.9 mph - N/A   Clear
9:53 PM 62.1 °F 43.0 °F 50% 30.06 in 10.0 mi SSE 8.1 mph - N/A   Clear
10:53 PM 63.0 °F 43.0 °F 48% 30.05 in 10.0 mi SSE 5.8 mph - N/A   Clear
11:53 PM 59.0 °F 44.1 °F 58% 30.04 in 10.0 mi Calm Calm - N/A   Clear